Location: Peebles
(55.6412°N, 3.1714°W)
Time: 08:53:58
(UTC+00:00)

COSMOS 2251 DEB - Pass Details

Date: 09 December 2022
Orbit: 738 x 761 km, 74.0° (Epoch: 29 January)

Event Time Altitude Azimuth Distance (km) Brightness Sun altitude
Exits shadow 07:37:07 - 334° (NNW) 2,853 ? -6.7°
Reaches altitude 10° 07:39:34 10° 353° (N) 2,265 ? -6.4°
Maximum altitude 07:42:11 14° 24° (NNE) 2,012 ? -6.1°
Drops below altitude 10° 07:44:47 10° 55° (NE) 2,268 ? -5.8°
Sets 07:48:24 0° 81° (E) 3,195 ? -5.4°
